Powrót do katalogu

OPS 4682 DEB

AktywnyPO
NORAD 18670·DEBRIS·🇺🇸 United States

Wystrzelony Apr 3, 1965 z Vandenberg Space Force Base

Loading…

Następne Przeloty (najbliższe 24 godziny)

TLE

ŚwieżeSource: Space-Track

Epoka: Sep 14, 2026, 05:38 UTC

1 18670U 65027AG  26257.23514454 -.00000120  00000-0 -43787-3 0  9999
2 18670  90.2427 358.2437 0023726 258.6105 101.2351 12.97297642674310

Śledź OPS 4682 DEB w czasie rzeczywistym z AllMySat

Download on the App Store